This is the latest recevied weather packets stored in our database for station/object WY1B. If no packets are shown the sender has not sent any weather packets the latest 10 day(s).
| Time | Temp. | Humidity | Pressure | Rain* | Wind** | Luminosity | Snow |
|---|---|---|---|---|---|---|---|
| 1787869532 | 47.78° C | 15% | 1002.1 hPa | 0 mm | - | 479 W/m² | - |
| 1787869227 | 47.78° C | 15% | 1002 hPa | 0 mm | - | 503 W/m² | - |
| 1787868920 | 47.78° C | 15% | 1002.3 hPa | 0 mm | - | 519 W/m² | - |
| 1787868620 | 47.78° C | 15% | 1002.1 hPa | 0 mm | - | 535 W/m² | - |
| 1787868318 | 48.33° C | 15% | 1002.4 hPa | 0 mm | - | 552 W/m² | - |
| 1787868014 | 47.78° C | 15% | 1002.3 hPa | 0 mm | - | 568 W/m² | - |
| 1787867710 | 47.78° C | 16% | 1002.6 hPa | 0 mm | - | 584 W/m² | - |
| 1787867410 | 47.22° C | 15% | 1002.8 hPa | 0 mm | - | 600 W/m² | - |
| 1787867106 | 47.22° C | 15% | 1002.8 hPa | 0 mm | - | 619 W/m² | - |
| 1787866806 | 47.22° C | 16% | 1003.1 hPa | 0 mm | - | 635 W/m² | - |
| 1787866500 | 47.22° C | 15% | 1003 hPa | 0 mm | - | 653 W/m² | - |
| 1787866199 | 47.78° C | 15% | 1003.2 hPa | 0 mm | - | 667 W/m² | - |
| 1787865894 | 47.78° C | 15% | 1003.3 hPa | 0 mm | - | 682 W/m² | - |
| 1787865589 | 47.78° C | 15% | 1003.1 hPa | 0 mm | - | 702 W/m² | - |
| 1787865284 | 47.78° C | 15% | 1003.4 hPa | 0 mm | - | 715 W/m² | - |
| 1787864980 | 47.78° C | 15% | 1003.4 hPa | 0 mm | - | 731 W/m² | - |
| 1787864676 | 47.78° C | 15% | 1003.5 hPa | 0 mm | - | 746 W/m² | - |
| 1787864374 | 47.22° C | 15% | 1003.8 hPa | 0 mm | - | 760 W/m² | - |
| 1787864074 | 47.78° C | 15% | 1003.8 hPa | 0 mm | - | 774 W/m² | - |
| 1787863773 | 47.78° C | 15% | 1003.8 hPa | 0 mm | - | 789 W/m² | - |
| 1787863472 | 47.22° C | 15% | 1003.7 hPa | 0 mm | - | 797 W/m² | - |
| 1787863168 | 47.22° C | 15% | 1003.9 hPa | 0 mm | - | 805 W/m² | - |
| 1787862864 | 46.67° C | 16% | 1003.9 hPa | 0 mm | - | 821 W/m² | - |
| 1787862563 | 46.11° C | 16% | 1004.1 hPa | 0 mm | - | 832 W/m² | - |
| 1787862258 | 46.67° C | 15% | 1004.3 hPa | 0 mm | - | 838 W/m² | - |
* Rain latest hour (hover to see other rain measurements)
** Current wind speed in m/s (hover to see current wind gust speed)